Location: Bouchavesnes-Bergen
(49.9859°N, 2.9203°E)
Time: 03:07:04
(UTC+00:00)

Cosmos 1140 Rocket - Pass Details

Date: 09 March 2021
Orbit: 745 x 766 km, 74.1° (Epoch: 16 April)

Event Time Altitude Azimuth Distance (km) Brightness Sun altitude
Rises 04:42:47 0° 194° (SSW) 3,209 6.5 -15.5°
Reaches altitude 10° 04:45:09 10° 192° (SSW) 2,285 5.7 -15.2°
Maximum altitude 04:50:18 70° 110° (ESE) 806 3.8 -14.4°
Drops below altitude 10° 04:55:28 10° 28° (NNE) 2,287 6.5 -13.5°
Sets 04:57:50 0° 26° (NNE) 3,213 7.2 -13.2°
